Location: Marse
(42.1502°N, 110.9866°W)
Time: 06:36:57
(UTC+00:00)

ZACube-1 - Pass Details

Date: 28 June 2022
Orbit: 582 x 661 km, 97.6° (Epoch: 11 August)

Event Time Altitude Azimuth Distance (km) Brightness Sun altitude
Rises 11:00:51 0° 17° (NNE) 2,937 ? -8.1°
Reaches altitude 10° 11:03:05 10° 21° (NNE) 2,036 ? -7.8°
Maximum altitude 11:07:27 55° 100° (E) 782 ? -7.2°
Drops below altitude 10° 11:11:52 10° 178° (S) 2,058 ? -6.6°
Sets 11:14:08 0° 183° (S) 2,971 ? -6.2°
